CZ-6A DEB, 55537

Orbit data source: Space-Track

CZ-6A DEB, 55537 is space debris in SSO originally from a launch on Fri, 11 Nov 2022 UTC launched from the Taiyaun Space Center, China (TSC). Debris objects in space refer to the collection of defunct objects orbiting the Earth. Examples of debris include non-operational satellites, rocket bodies, and fragments generated from explosions, collisions, or faulty payload assembly.

Loading next visibility...
Identifier
55537, 2022-151YK
Orbit
SSO
Country
Flag of CNCN / PRC
Related business
Manufacturer
SAST
Mission
Spacecraft
Bus & Motor
Unknown
Mass
Unknown
Launch date (UTC)
2022-11-11 (3 years ago)
Launch vehicle
Unknown
Launch site
Taiyaun Space Center, China (TSC)
Object type
Payload
Rocket body
Debris
Shape & HBR
Unknown shape, 0.1 m
Radar Cross Section
Small (<0.1 m²)

Expand to show TLE details & history
Last TLE update: 14 hours ago

TLE from 14 hours ago
0 CZ-6A DEB
1 55537U 22151YK  25353.10490333  .00011120  00000-0  19143-2 0  9992
2 55537  98.6381  43.0543 0074218 130.5465 230.2231 14.66931199158362
Epoch: 2025-12-19T02:31Z
TLE epoch observation values (Epoch: 2025-12-19T02:31:03.647Z)
Latitude
-0.00011°
Longitude
-82.66172°
Altitude
707.57 km
Speed
7.484 km/s
True Right ascension
02h 52m 13s
True Declination
0° 00' 00"
Sunlit
Object was in full shadow at epoch
Visualization orbit readout
Latitude
Unknown
Longitude
Unknown
Altitude
Unknown
Speed
Unknown
Apparent Right ascension
Unknown
Apparent Declination
Unknown
Sunlit
N/A
Visualization observer readout
Local Sidereal Time
15:00:52
Azimuth
Unknown
Elevation
Unknown
Doppler factor
Unknown
Orbital elements
Apogee altitude
720.269 km
Perigee altitude
615.68 km
Semi-major axis
7,046.111 km
Eccentricity
0.00742
Inclination
98.6381°
RAAN
43.0543°
Arg. of periapsis
130.5465°
True anomaly
229.57335°
Mean anomaly
230.2231°
Eccentric anomaly
229.89784°
Mean motion
3.6696 °/min
Orbital period
98.1 mins
BSTAR
0.0019143
Loading maneuver chart data...
Computing Atmospheric mass density...

Documentation

Showing up to 5 results
|